Zurück zum Katalog

STARLINK-36403

AktivKommunikationSSO
NORAD 67563·PAYLOAD·🇺🇸 United States

Gestartet Jan 25, 2026 von Vandenberg Space Force Base

Loading…

Nächste Überflüge (nächste 24 Stunden)

TLE

AktuellSource: CelesTrak SupGP

Epoche: Sep 15, 2026, 03:38 UTC

1 67563C 26016C   26258.15187500 -.00028836  00000+0 -89515-3 0  2589
2 67563  97.2847 316.8985 0001077  96.4027 186.6157 15.33453334    18

Verfolge STARLINK-36403 in Echtzeit mit AllMySat

Download on the App Store